Location: Bowen Observatory
(35.3292°N, 120.7429°W)
Time: 22:39:46
(UTC-08:00)

Hubble Space Telescope - Visible Passes

Search period start: 27 February 2020 00:00
Search period end: 08 March 2020 00:00
Orbit: 536 x 540 km, 28.5° (Epoch: 27 February)

Date Brightness Start Highest point End Pass type
(mag) Time Alt. Az. Time Alt. Az. Time Alt. Az.
27 Feb 2.6 19:18:02 10° WSW 19:21:15 22° SSW 19:23:02 17° SSE visible
28 Feb 2.9 19:07:33 10° WSW 19:10:31 19° SSW 19:13:13 11° SSE visible
29 Feb 3.1 18:57:09 10° WSW 18:59:48 16° SSW 19:02:26 10° SSE visible
01 Mar 3.3 18:46:55 10° SW 18:49:03 14° SSW 18:51:11 10° S visible
02 Mar 3.5 18:37:00 10° SW 18:38:18 11° SSW 18:39:36 10° S visible
